[[{"header":{"parameterUnit":"m.s-1","parameterCategory":1,"la1":30.2991,"la2":30.254,"lo1":-89.0895,"lo2":-89.0444,"dy":0.0017,"dx":0.0017,"nx":28,"ny":28,"refTime":"2024-10-03T21:00:00:Z","depth":0,"parameterNumber":2,"parameterNumberName":"U-component_of_WINDS"},"data":[0,0,0,0,0,0,0,0,0,0,0,0,0,0,0,0,0,0,0,0,0,0,0,0,0,0,0,0,0,0,0,0,0,0,0,0,0,0,0,0,0,0,0,0,0,0,0,0,0,0,0,0,0,0,0,0,0,0,-4.3784,-4.3785,0,-4.3868,-4.3869,-4.387,-4.383,-4.3828,-4.3826,-4.3824,-4.3911,-4.3916,-4.392,0,0,0,0,0,0,0,0,0,0,0,0,0,-4.3589,-4.3593,-4.3784,-4.3785,-4.3786,-4.3868,-4.3869,-4.3871,-4.383,-4.3828,-4.3825,-4.3823,-4.391,-4.3915,-4.392,0,0,0,0,0,0,0,0,0,0,0,0,0,-4.3674,-4.3594,-4.3783,-4.3776,-4.3776,-4.3868,-4.3869,-4.3871,-4.3831,-4.3828,-4.3824,-4.3821,-4.3908,-4.3915,-4.3921,-4.4026,0,0,-4.3941,-4.3944,0,0,0,0,0,0,0,0,-4.3669,-4.3681,-4.3776,-4.3776,-4.3777,-4.3835,-4.3833,-4.3923,-4.3832,-4.381,-4.3824,-4.382,-4.3889,-4.3897,-4.392,-4.403,-4.4034,-4.3942,-4.3946,-4.3948,-4.395,0,0,0,0,0,0,0,-4.3663,-4.3677,-4.3817,-4.3777,-4.3778,-4.3769,-4.3777,-4.385,-4.3867,-4.3812,-4.3809,-4.3819,-4.3888,-4.3914,-4.3922,-4.4036,-4.3941,-4.3947,-4.3951,-4.3954,-4.4237,-4.4241,0,0,0,0,0,0,-4.3657,-4.3673,-4.3814,-4.382,-4.3714,-4.3775,-4.3784,-4.382,-4.3866,-4.387,-4.3822,-4.3817,-4.3904,-4.3914,-4.3924,-4.405,-4.3948,-4.3955,-4.3958,-4.4234,-4.4238,-4.4242,0,0,0,0,0,0,-4.3653,-4.3671,-4.3811,-4.3746,-4.3763,-4.3782,-4.3822,-4.3823,-4.3848,-4.3874,-4.3877,-4.3845,-4.3902,-4.3915,-4.4001,-4.4053,-4.3957,-4.3963,-4.4229,-4.4235,-4.424,-4.4302,0,0,0,0,0,0,-4.3648,-4.3669,-4.3709,-4.3747,-4.3766,-4.3886,-4.3825,-4.3827,-4.3859,-4.3854,-4.3895,-4.3899,-4.39,-4.3992,-4.4008,-4.406,-4.3968,-4.4225,-4.4232,-4.4238,-4.4296,-4.4309,-4.4321,0,0,0,0,0,-4.3641,-4.3723,-4.3711,-4.3728,-4.3816,-4.3889,-4.39,-4.3899,-4.3864,-4.3904,-4.392,-4.3898,-4.4045,-4.4001,-4.4019,-4.4073,-4.4222,-4.423,-4.4238,-4.429,-4.4307,-4.4321,0,0,0,0,0,0,-4.3691,-4.3728,-4.3715,-4.3811,-4.3847,-4.3882,-4.3932,-4.3917,-4.3964,-4.3957,-4.3955,-4.3964,-4.4053,-4.4073,-4.4023,-4.4178,-4.4128,-4.414,-4.4162,-4.4178,-4.419,-4.4182,-4.3974,0,0,0,0,0,-4.3713,-4.3769,-4.3798,-4.3881,-4.39,-4.3913,-4.3945,-4.3941,-4.3979,-4.3994,-4.4017,-4.4054,-4.4109,-4.4145,-4.4196,-4.43,-4.4308,-4.4346,-4.4359,-4.4369,-4.4378,-4.4434,-4.4451,-4.4269,-4.4269,-4.4268,0,0,-4.3759,-4.3787,-4.3822,-4.3892,-4.3919,-4.3977,-4.3926,-4.399,-4.4033,-4.4003,-4.4085,-4.4104,-4.4146,-4.4241,-4.4284,-4.4259,-4.4431,-4.4379,-4.4387,-4.4391,-4.4444,-4.4462,-4.4477,-4.4274,-4.4273,-4.4272,0,0,-4.3873,-4.39,-4.3971,-4.3999,-4.4042,-4.405,-4.4068,-4.4105,-4.4116,-4.4199,-4.4178,-4.423,-4.4325,-4.4355,-4.4383,-4.4511,-4.4491,-4.4528,-4.4592,-4.4647,-4.4661,-4.4674,-4.4718,-4.4734,-4.4538,-4.4538,-4.4538,0,-4.3925,-4.401,-4.4009,-4.4074,-4.4106,-4.4083,-4.4155,-4.4183,-4.4241,-4.4263,-4.4235,-4.4354,-4.438,-4.4482,-4.4513,-4.4537,-4.4557,-4.4522,-4.4659,-4.4672,-4.4684,-4.4726,-4.4743,-4.4542,-4.4542,-4.4541,-4.4541,0,-4.4072,-4.4132,-4.4185,-4.424,-4.4278,-4.4347,-4.4356,-4.4395,-4.4389,-4.4401,-4.4486,-4.4518,-4.4575,-4.46,-4.4595,-4.4702,-4.4685,-4.4659,-4.4608,-4.4705,-4.4745,-4.4761,-4.4548,-4.4546,-4.4545,-4.4544,0,0,-4.4216,-4.4271,-4.429,-4.4315,-4.4361,-4.4408,-4.4477,-4.4533,-4.4565,-4.4607,-4.4664,-4.4745,-4.4721,-4.4753,-4.4752,-4.48,-4.4898,-4.4768,-4.4768,-4.4789,-4.5017,-4.5034,-4.5053,-4.4887,-4.489,-4.4892,-4.5012,0,-4.4332,-4.445,-4.4451,-4.456,-4.4616,-4.4596,-4.4655,-4.4691,-4.4705,-4.4754,-4.477,-4.4827,-4.4792,-4.4811,-4.4858,-4.4876,-4.4943,-4.4868,-4.4939,-4.4942,-4.4927,-4.5074,-4.5093,-4.5205,-4.5028,-4.5031,-4.5033,0,-4.4481,-4.4526,-4.4641,-4.4679,-4.4702,-4.4755,-4.4807,-4.4856,-4.4896,-4.4903,-4.4939,-4.4931,-4.5002,-4.4951,-4.5048,-4.4996,-4.5027,-4.504,-4.5045,-4.5049,-4.4991,-4.5081,-4.524,-4.5256,-4.5057,-4.5055,-4.5054,0,-4.4573,-4.4663,-4.4743,-4.4765,-4.4812,-4.485,-4.4872,-4.4909,-4.4943,-4.4989,-4.5011,-4.5065,-4.5095,-4.5137,-4.5145,-4.5107,-4.5242,-4.5192,-4.5249,-4.5249,-4.5276,-4.5274,-4.544,-4.5299,-4.5299,-4.5299,-4.5299,0,-4.47,-4.477,-4.4784,-4.4833,-4.4912,-4.4914,-4.4992,-4.5011,-4.5045,-4.5097,-4.5085,-4.5135,-4.5142,-4.5195,-4.5201,-4.528,-4.5294,-4.5302,-4.5302,-4.5302,-4.53,-4.5319,-4.5311,-4.5303,-4.5302,-4.5301,-4.5301,0,-4.4814,-4.4827,-4.4912,-4.4951,-4.4962,-4.5018,-4.5051,-4.5098,-4.5112,-4.5179,-4.5195,-4.5216,-4.5277,-4.5289,-4.5362,-4.5366,-4.546,-4.5454,-4.5446,-4.5444,-4.55,-4.5494,-4.5683,-4.5708,-4.5552,-4.5554,-4.5555,0,-4.4893,-4.4947,-4.4991,-4.5025,-4.5048,-4.5104,-4.5138,-4.5144,-4.5181,-4.5231,-4.5273,-4.5332,-4.538,-4.5478,-4.5501,-4.5556,-4.555,-4.5613,-4.5558,-4.5556,-4.5549,-4.5545,-4.555,-4.5622,-4.5624,-4.5625,-4.5626,0,-4.5032,-4.5036,-4.5086,-4.5139,-4.518,-4.5222,-4.5262,-4.5291,-4.5302,-4.5345,-4.5406,-4.5443,-4.5518,-4.5577,-4.5633,-4.5656,-4.5643,-4.5644,-4.566,-4.5658,-4.5651,-4.5654,-4.5472,-4.5639,-4.5638,-4.5637,-4.5636,-4.5635,-4.513,-4.5176,-4.5215,-4.5271,-4.5302,-4.534,-4.5386,-4.5405,-4.5457,-4.5517,-4.5518,-4.5585,-4.5626,-4.5699,-4.5726,-4.578,-4.576,-4.5784,-4.5789,-4.5794,-4.5799,-4.5645,-4.579,-4.579,-4.579,-4.5789,-4.5789,0,-4.5266,-4.529,-4.5342,-4.5398,-4.5443,-4.5428,-4.5472,-4.551,-4.5569,-4.5608,-4.5655,-4.5727,-4.5785,-4.5813,-4.587,-4.5908,-4.5904,-4.5923,-4.5919,-4.5924,-4.5814,-4.5793,-4.5925,-4.5925,-4.5925,-4.5925,-4.5925,-4.5925,-4.5342,-4.542,-4.5429,-4.5522,-4.5546,-4.5611,-4.5638,-4.5673,-4.5703,-4.5784,-4.5831,-4.5849,-4.5884,-4.5944,-4.5997,-4.6004,-4.6025,-4.6046,-4.605,-4.5946,-4.5932,-4.5919,-4.5899,-4.6052,-4.6052,-4.6156,-4.6157,-4.6158]},{"header":{"parameterUnit":"m.s-1","parameterCategory":1,"la1":30.2991,"la2":30.254,"lo1":-89.0895,"lo2":-89.0444,"dy":0.0017,"dx":0.0017,"nx":28,"ny":28,"refTime":"2024-10-03T21:00:00:Z","depth":0,"parameterNumber":3,"parameterNumberName":"V-component_of_WINDS"},"data":[0,0,0,0,0,0,0,0,0,0,0,0,0,0,0,0,0,0,0,0,0,0,0,0,0,0,0,0,0,0,0,0,0,0,0,0,0,0,0,0,0,0,0,0,0,0,0,0,0,0,0,0,0,0,0,0,0,0,2.5482,2.5483,0,2.5556,2.5557,2.5558,2.5647,2.5649,2.565,2.5651,2.572,2.5721,2.5721,0,0,0,0,0,0,0,0,0,0,0,0,0,2.5414,2.5415,2.5482,2.5483,2.5484,2.5556,2.5557,2.5558,2.5647,2.5649,2.565,2.5652,2.572,2.5721,2.5721,0,0,0,0,0,0,0,0,0,0,0,0,0,2.5461,2.5415,2.5482,2.5538,2.5543,2.5556,2.5557,2.5558,2.5647,2.5649,2.5651,2.5653,2.572,2.572,2.5721,2.5683,0,0,2.5724,2.5724,0,0,0,0,0,0,0,0,2.5458,2.5464,2.5529,2.5534,2.554,2.5595,2.5558,2.56,2.5646,2.5607,2.5651,2.5654,2.5676,2.5681,2.569,2.5686,2.5689,2.5724,2.5724,2.5724,2.5725,0,0,0,0,0,0,0,2.5455,2.5461,2.5511,2.5529,2.5536,2.5557,2.5566,2.5566,2.5628,2.5611,2.5617,2.5625,2.568,2.5689,2.5692,2.569,2.5724,2.5724,2.5725,2.5725,2.566,2.5658,0,0,0,0,0,0,2.5444,2.5458,2.5509,2.5514,2.5504,2.5556,2.5567,2.5575,2.5629,2.5639,2.5623,2.5629,2.5686,2.5691,2.5695,2.5654,2.5724,2.5725,2.5726,2.5662,2.566,2.5657,0,0,0,0,0,0,2.5443,2.5448,2.5506,2.5488,2.5497,2.5555,2.5564,2.5575,2.5584,2.5639,2.5649,2.5621,2.5688,2.5694,2.5686,2.5658,2.5725,2.5726,2.5665,2.5661,2.5658,2.5572,0,0,0,0,0,0,2.544,2.5447,2.5434,2.5487,2.5497,2.5497,2.5562,2.5575,2.5586,2.5594,2.5639,2.5649,2.569,2.5684,2.5687,2.566,2.5727,2.5668,2.5663,2.5659,2.5577,2.5566,2.5556,0,0,0,0,0,2.5438,2.5405,2.5433,2.5439,2.5483,2.5496,2.5501,2.5551,2.5583,2.557,2.5605,2.5647,2.5661,2.5683,2.5686,2.5659,2.567,2.5665,2.566,2.5582,2.5568,2.5556,0,0,0,0,0,0,2.5345,2.5413,2.5445,2.5429,2.5456,2.5511,2.5496,2.5535,2.5552,2.5559,2.5618,2.5628,2.5612,2.5635,2.5659,2.5625,2.5671,2.5667,2.5611,2.5598,2.5588,2.5582,2.5727,0,0,0,0,0,2.5323,2.533,2.5388,2.5369,2.5381,2.5436,2.5443,2.548,2.5509,2.5521,2.5555,2.5581,2.5591,2.5596,2.5608,2.5582,2.5592,2.5565,2.5554,2.5545,2.554,2.5528,2.5516,2.5641,2.5641,2.5641,0,0,2.5277,2.5315,2.5315,2.5351,2.5377,2.538,2.5445,2.5446,2.5449,2.552,2.5516,2.5542,2.5574,2.5557,2.5551,2.5576,2.5508,2.5539,2.5531,2.5531,2.5521,2.5509,2.5499,2.5638,2.5638,2.5639,0,0,2.5196,2.5226,2.5213,2.5238,2.5277,2.5314,2.5311,2.536,2.5381,2.5378,2.5432,2.5435,2.5451,2.5472,2.5485,2.5413,2.5452,2.5415,2.5359,2.5347,2.5337,2.5328,2.5302,2.5292,2.5411,2.541,2.541,0,2.5133,2.5144,2.5201,2.52,2.5213,2.5281,2.5268,2.5288,2.5327,2.5335,2.5362,2.5385,2.5411,2.54,2.5383,2.5391,2.5388,2.541,2.5334,2.5326,2.5319,2.5295,2.5285,2.5406,2.5406,2.5407,2.5407,0,2.5065,2.5071,2.5056,2.5095,2.5107,2.51,2.5154,2.5159,2.5195,2.5229,2.5224,2.5259,2.528,2.528,2.5314,2.5273,2.5287,2.5323,2.537,2.5301,2.5279,2.5271,2.5399,2.54,2.5402,2.5403,0,0,2.4926,2.4999,2.4992,2.5011,2.5059,2.5064,2.506,2.5082,2.5085,2.511,2.5107,2.512,2.5154,2.5168,2.5205,2.5194,2.5135,2.5232,2.5234,2.5212,2.5092,2.5064,2.5053,2.5162,2.516,2.5159,2.5089,0,2.4853,2.4851,2.4903,2.4886,2.4892,2.4957,2.4953,2.4981,2.5013,2.5021,2.5055,2.5063,2.5108,2.5117,2.5109,2.5144,2.5111,2.515,2.5157,2.5157,2.5147,2.5041,2.5012,2.4944,2.5081,2.508,2.5079,0,2.4767,2.479,2.4775,2.4825,2.4829,2.4825,2.485,2.4858,2.4891,2.4915,2.4932,2.4975,2.4972,2.5018,2.5014,2.5039,2.5046,2.5063,2.5062,2.5063,2.5113,2.5039,2.4924,2.4913,2.5066,2.5067,2.5068,0,2.4667,2.4694,2.4689,2.4703,2.4761,2.4757,2.478,2.4816,2.4826,2.4848,2.4855,2.4875,2.4885,2.4899,2.4945,2.4975,2.4936,2.4986,2.4954,2.4953,2.4942,2.4942,2.4825,2.4948,2.4948,2.4948,2.4948,0,2.4579,2.4567,2.4645,2.4641,2.4629,2.4688,2.4674,2.4704,2.4735,2.4737,2.4794,2.4794,2.4856,2.4863,2.4899,2.4891,2.4895,2.4913,2.4922,2.4907,2.4905,2.4911,2.4917,2.4945,2.4946,2.4946,2.4947,0,2.4465,2.4516,2.4515,2.4571,2.4585,2.4574,2.4621,2.4619,2.4655,2.4657,2.4661,2.4716,2.4727,2.4776,2.4797,2.4822,2.48,2.482,2.479,2.4796,2.4762,2.4764,2.4644,2.4631,2.4762,2.476,2.4759,0,2.4405,2.4398,2.4454,2.4461,2.4483,2.4493,2.4505,2.4563,2.4573,2.4611,2.4604,2.462,2.4636,2.465,2.4691,2.4708,2.4728,2.4685,2.473,2.4716,2.4726,2.4726,2.4725,2.4674,2.4673,2.4671,2.467,0,2.4294,2.4321,2.4337,2.4362,2.4375,2.4397,2.4422,2.4424,2.4488,2.4496,2.4509,2.4522,2.4546,2.456,2.4585,2.4607,2.4648,2.4656,2.4649,2.4633,2.4616,2.4624,2.4762,2.4658,2.4659,2.466,2.4661,2.4661,2.4205,2.4202,2.4242,2.4258,2.4284,2.4306,2.4307,2.4345,2.4358,2.4383,2.4416,2.4425,2.4458,2.4496,2.4515,2.4521,2.4545,2.4535,2.4533,2.453,2.4522,2.4616,2.4526,2.4526,2.4527,2.4527,2.4527,0,2.4097,2.4126,2.4141,2.4175,2.4188,2.4229,2.4259,2.4266,2.4274,2.4303,2.4318,2.4334,2.4349,2.4391,2.441,2.4407,2.4426,2.441,2.441,2.4414,2.45,2.4504,2.4394,2.4394,2.4394,2.4394,2.4394,2.4394,2.4042,2.4039,2.407,2.4079,2.4108,2.412,2.4133,2.4154,2.4177,2.4193,2.4207,2.4235,2.4269,2.4291,2.4306,2.4318,2.4322,2.4299,2.4317,2.4396,2.4408,2.4421,2.4424,2.43,2.4299,2.4231,2.423,2.423]}]]